Weather History for Cork, Ireland

Change the Weather History Date:

Saturday, February 16, 2013

  Actual Average Record
Temperature  
Mean Temperature 46 °F -  
Max Temperature 47 °F 48 °F 51 °F (2004)
Min Temperature 44 °F 38 °F 32 °F (2000)
Degree Days  
Heating Degree Days 20    
Moisture  
Dew Point 47 °F    
Average Humidity 98    
Maximum Humidity 100    
Minimum Humidity 93    
Precipitation  
Precipitation 0.04 in 0.14 in - ()
Sea Level Pressure  
Sea Level Pressure 30.01 in    
Wind  
Wind Speed 12 mph ()    
Max Wind Speed 22 mph    
Max Gust Speed -    
Visibility 3.7 miles    
Events Fog , Rain    
Averages and records for this station are not official NWS values.
T = Trace of Precipitation, MM = Missing Value Source: Averaged Metar Reports

Daily Weather History Graph

Daily Weather History Graph

Search for Another Location

Airport:

Trip Planner

Search our weather history database for the weather conditions in past years. The results will help you decide how hot, cold, wet, or windy it might be!

Date:

Astronomy

Feb. 16, 2013 Rise Set
Actual Time 7:46 AM GMT 5:50 PM GMT
Civil Twilight 7:11 AM GMT 6:25 PM GMT
Nautical Twilight 6:32 AM GMT 7:04 PM GMT
Astronomical Twilight 5:53 AM GMT 7:43 PM GMT
Moon 9:58 AM GMT (2/16) 12:26 AM GMT (2/16)
Length of Visible Light 11h 13m
Length of Day
10h 04m
Waxing Crescent, 37% of the Moon is Illuminated
Feb 16
Waxing Crescent
Feb 17
First Quarter
Feb 25
Full
Mar 4
Last Quarter
Mar 11
New

Hourly Weather History & Observations

Time (GMT) Temp. Windchill Dew Point Humidity Pressure Visibility Wind Dir Wind Speed Gust Speed Precip Events Conditions
12:00 AM 47 °F - 47 °F 100% 30.10 in 0 mi South 8.9 mph - - Rain Light Rain
12:00 AM 46.4 °F 41.9 °F 46.4 °F 100% 30.06 in 0.5 mi South 9.2 mph - N/A Fog , Rain Light Rain
12:30 AM 46.4 °F 42.9 °F 46.4 °F 100% 30.06 in 0.7 mi South 6.9 mph - N/A Rain Light Rain
1:00 AM 46.4 °F 41.9 °F 46.4 °F 100% 30.06 in 0.7 mi South 9.2 mph - N/A Rain Light Rain
1:30 AM 46.4 °F 41.5 °F 46.4 °F 100% 30.06 in 0.5 mi South 10.4 mph - N/A Fog , Rain Light Rain
2:00 AM 46.4 °F 41.5 °F 46.4 °F 100% 30.06 in 0.7 mi South 10.4 mph - N/A Rain Light Rain
2:30 AM 46.4 °F 41.1 °F 46.4 °F 100% 30.06 in 0.7 mi South 11.5 mph - N/A Rain Light Rain
3:00 AM 46.4 °F 41.9 °F 46.4 °F 100% 30.04 in 0.4 mi South 9.2 mph - N/A Fog , Rain Light Rain
3:30 AM 46.4 °F 41.5 °F 46.4 °F 100% 30.04 in 0.4 mi South 10.4 mph - N/A Fog , Rain Light Rain
4:00 AM 46.4 °F 41.9 °F 46.4 °F 100% 30.04 in 0.4 mi South 9.2 mph - N/A Fog , Rain Light Rain
4:30 AM 48.2 °F - 48.2 °F 100% 30.04 in 0.5 mi South 9.2 mph - N/A Fog , Rain Light Rain
5:00 AM 48.2 °F - 48.2 °F 100% 30.04 in 0.4 mi South 10.4 mph - N/A Fog , Rain Light Rain
5:30 AM 46.4 °F 41.1 °F 46.4 °F 100% 30.04 in 0.5 mi South 11.5 mph - N/A Fog , Rain Light Rain
6:00 AM 47 °F - 47 °F 100% 30.06 in 1 mi SSE 11.2 mph - - Rain Light Rain
6:00 AM 46.4 °F 41.1 °F 46.4 °F 100% 30.04 in 0.7 mi SSE 11.5 mph - N/A Rain Light Rain
6:30 AM 46.4 °F 41.5 °F 46.4 °F 100% 30.04 in 0.4 mi SSE 10.4 mph - N/A Fog Fog
7:00 AM 48.2 °F - 48.2 °F 100% 30.04 in 0.6 mi SSE 12.7 mph - N/A Fog Fog
7:30 AM 48.2 °F - 48.2 °F 100% 30.04 in 0.3 mi South 11.5 mph - N/A Fog , Rain Light Rain
8:00 AM 48.2 °F - 48.2 °F 100% 30.04 in 0.3 mi South 11.5 mph - N/A Fog Light Drizzle
8:30 AM 48.2 °F - 48.2 °F 100% 30.04 in 0.2 mi South 12.7 mph - N/A Fog Fog
9:00 AM 48.2 °F - 48.2 °F 100% 30.04 in 0.2 mi South 12.7 mph - N/A Fog Light Drizzle
9:30 AM 48.2 °F - 48.2 °F 100% 30.04 in 0.2 mi SSE 12.7 mph - N/A Fog Fog
10:00 AM 48.2 °F - 48.2 °F 100% 30.04 in 0.2 mi SSE 13.8 mph - N/A Fog Fog
10:30 AM 48.2 °F - 48.2 °F 100% 30.04 in 0.6 mi SSE 17.3 mph - N/A Fog Fog
11:00 AM 48.2 °F - 48.2 °F 100% 30.04 in 3.7 mi SSE 13.8 mph - N/A   Overcast
11:30 AM 48.2 °F - 48.2 °F 100% 30.04 in 4.3 mi SSE 15.0 mph - N/A   Overcast
12:00 PM 47 °F - 47 °F 100% 30.05 in 12 mi SSE 15.7 mph - -   Partly Cloudy
12:00 PM 48.2 °F - 48.2 °F 100% 30.04 in 6.2 mi SSE 16.1 mph - N/A   Overcast
12:30 PM 48.2 °F - 48.2 °F 100% 30.01 in 6.2 mi SSE 17.3 mph - N/A   Overcast
1:00 PM 48.2 °F - 48.2 °F 100% 30.01 in 6.2 mi SSE 17.3 mph - N/A   Overcast
1:30 PM 48.2 °F - 48.2 °F 100% 30.01 in 6.2 mi SSE 17.3 mph - N/A   Mostly Cloudy
2:00 PM 48.2 °F - 46.4 °F 93% 30.01 in 6.2 mi SSE 18.4 mph - N/A   Mostly Cloudy
2:30 PM 48.2 °F - 46.4 °F 93% 30.01 in 6.2 mi SSE 18.4 mph - N/A   Mostly Cloudy
3:00 PM 48.2 °F - 46.4 °F 93% 29.98 in 6.2 mi SSE 20.7 mph - N/A   Mostly Cloudy
3:30 PM 48.2 °F - 46.4 °F 93% 29.98 in 6.2 mi SSE 20.7 mph - N/A   Mostly Cloudy
4:00 PM 48.2 °F - 46.4 °F 93% 29.98 in 6.2 mi SSE 19.6 mph - N/A   Mostly Cloudy
4:30 PM 46.4 °F 39.2 °F 46.4 °F 100% 29.98 in 6.2 mi SSE 18.4 mph - N/A   Mostly Cloudy
5:00 PM 46.4 °F 39.2 °F 46.4 °F 100% 29.98 in 6.2 mi SSE 18.4 mph - N/A   Mostly Cloudy
5:30 PM 46.4 °F 38.7 °F 46.4 °F 100% 29.98 in 6.2 mi SSE 20.7 mph - N/A   Mostly Cloudy
6:00 PM 46 °F - 46 °F 98% 29.99 in 14 mi SSE 20.1 mph - -   Mostly Cloudy
6:00 PM 46.4 °F 39.0 °F 46.4 °F 100% 29.98 in 6.2 mi SSE 19.6 mph - N/A   Mostly Cloudy
6:30 PM 46.4 °F 39.2 °F 46.4 °F 100% 29.98 in 6.2 mi SSE 18.4 mph - N/A   Mostly Cloudy
7:00 PM 46.4 °F 39.0 °F 44.6 °F 93% 29.98 in 6.2 mi SSE 19.6 mph - N/A   Mostly Cloudy
7:30 PM 46.4 °F 39.0 °F 44.6 °F 93% 29.98 in 6.2 mi SSE 19.6 mph - N/A   Mostly Cloudy
8:00 PM 46.4 °F 38.7 °F 44.6 °F 93% 29.95 in 6.2 mi SSE 20.7 mph - N/A   Mostly Cloudy
8:30 PM 46.4 °F 39.0 °F 44.6 °F 93% 29.95 in 6.2 mi SE 19.6 mph - N/A   Mostly Cloudy
9:00 PM 46.4 °F 38.7 °F 44.6 °F 93% 29.95 in 6.2 mi SE 20.7 mph - N/A   Mostly Cloudy
9:30 PM 46.4 °F 38.7 °F 44.6 °F 93% 29.95 in 6.2 mi SE 20.7 mph - N/A   Mostly Cloudy
10:00 PM 46.4 °F 38.7 °F 44.6 °F 93% 29.95 in 6.2 mi SE 20.7 mph - N/A   Mostly Cloudy
10:30 PM 46.4 °F 38.7 °F 46.4 °F 100% 29.95 in 6.2 mi SE 20.7 mph - N/A   Mostly Cloudy
11:00 PM 46.4 °F 38.5 °F 46.4 °F 100% 29.92 in 6.2 mi SE 21.9 mph - N/A Rain Light Rain
11:30 PM 46.4 °F 38.5 °F 46.4 °F 100% 29.92 in 6.2 mi SE 21.9 mph - N/A   Mostly Cloudy